NKS1403 KLGA-KBOS

Flight info

Callsign NKS1403
Flight time N/A
Altitude 21000
Route MERIT ROBUC3
Aircraft A20N/M-SDE2E3FGHIRWXY/LB1

Departure

Time 2026-05-03 21:30
Airport LaGuardia Airport (KLGA)

Arrival

Time N/A
Airport Boston Logan International Airport (KBOS)
Time Latitude Longitude Altitude Speed Heading
2026-05-03 20:57 40.77635 -73.87383 19 ft 0 kts 171°
2026-05-03 21:19 40.77643 -73.87384 21 ft 3 kts 172°
2026-05-03 21:19 40.77661 -73.87388 20 ft 3 kts 176°
2026-05-03 21:20 40.77680 -73.87386 21 ft 3 kts 205°
2026-05-03 21:20 40.77695 -73.87371 19 ft 3 kts 241°
2026-05-03 21:20 40.77702 -73.87349 21 ft 2 kts 254°
2026-05-03 21:20 40.77704 -73.87340 22 ft 0 kts 254°
2026-05-03 21:24 40.77703 -73.87344 21 ft 2 kts 254°
2026-05-03 21:24 40.77698 -73.87371 19 ft 4 kts 258°
2026-05-03 21:24 40.77696 -73.87418 19 ft 6 kts 275°
2026-05-03 21:25 40.77726 -73.87469 18 ft 9 kts 300°
2026-05-03 21:25 40.77704 -73.87529 19 ft 8 kts 214°
2026-05-03 21:25 40.77657 -73.87567 20 ft 9 kts 211°
2026-05-03 21:25 40.77609 -73.87634 20 ft 11 kts 260°
2026-05-03 21:26 40.77580 -73.87716 22 ft 11 kts 214°
2026-05-03 21:26 40.77507 -73.87777 20 ft 14 kts 211°
2026-05-03 21:26 40.77417 -73.87852 20 ft 17 kts 213°
2026-05-03 21:26 40.77313 -73.87940 20 ft 19 kts 214°
2026-05-03 21:27 40.77197 -73.88033 20 ft 20 kts 210°
2026-05-03 21:27 40.77077 -73.88131 22 ft 21 kts 212°
2026-05-03 21:27 40.76979 -73.88240 29 ft 18 kts 225°
2026-05-03 21:27 40.76930 -73.88339 29 ft 5 kts 266°
2026-05-03 21:28 40.76946 -73.88379 30 ft 5 kts 330°
2026-05-03 21:28 40.76969 -73.88371 29 ft 0 kts 30°
2026-05-03 21:29 40.76970 -73.88370 29 ft 1 kts 31°
2026-05-03 21:30 40.77127 -73.88241 25 ft 65 kts 31°
2026-05-03 21:30 40.77710 -73.87762 24 ft 129 kts 32°
2026-05-03 21:30 40.78596 -73.87003 212 ft 164 kts 29°
2026-05-03 21:30 40.79567 -73.86062 626 ft 192 kts 33°
2026-05-03 21:31 40.80646 -73.84690 1044 ft 237 kts 42°
2026-05-03 21:31 40.81851 -73.82935 1653 ft 270 kts 40°
2026-05-03 21:31 40.83272 -73.81215 2387 ft 291 kts 34°
2026-05-03 21:31 40.84945 -73.79510 3190 ft 309 kts 31°